Weather History for Amberley Military, QU

Change the Weather History Date:

Tuesday, July 23, 2013

  Actual Average (YBBN) Record (YBBN)
Temperature  
Mean Temperature 55 °F -  
Max Temperature 68 °F 71 °F 71 °F (2000)
Min Temperature 42 °F 50 °F 39 °F (1996)
Degree Days  
Heating Degree Days 10    
Growing Degree Days 5 (Base 50)    
Moisture  
Dew Point 41 °F    
Average Humidity 65    
Maximum Humidity 100    
Minimum Humidity 23    
Precipitation  
Precipitation 0.00 in 0.07 in - ()
Sea Level Pressure  
Sea Level Pressure 30.14 in    
Wind  
Wind Speed 4 mph ()    
Max Wind Speed 15 mph    
Max Gust Speed -    
Visibility 6.2 miles    
Events Fog    
Averages and records for this station are not official NWS values.
T = Trace of Precipitation, MM = Missing Value Source: Averaged Metar Reports

Daily Weather History Graph

Daily Weather History Graph

Search for Another Location

Airport:

Trip Planner

Search our weather history database for the weather conditions in past years. The results will help you decide how hot, cold, wet, or windy it might be!

Date:

Astronomy

Jul. 23, 2013 Rise Set
Actual Time 6:35 AM AEST 5:15 PM AEST
Civil Twilight 6:10 AM AEST 5:40 PM AEST
Nautical Twilight 5:42 AM AEST 6:09 PM AEST
Astronomical Twilight 5:14 AM AEST 6:37 PM AEST
Moon 5:55 PM AEST (7/23) 6:28 AM AEST (7/23)
Length of Visible Light 11h 29m
Length of Day
10h 39m
Full, 100% of the Moon is Illuminated
Jul 23
Full
Jul 30
Last Quarter
Aug 7
New
Aug 14
First Quarter
Aug 21
Full

Hourly Weather History & Observations

Time (AEST) Temp. Windchill Dew Point Humidity Pressure Visibility Wind Dir Wind Speed Gust Speed Precip Events Conditions
12:00 AM 53.6 °F - 51.8 °F 94% 30.18 in 6.2 mi West 4.6 mph - N/A   Scattered Clouds
12:30 AM 53.6 °F - 51.8 °F 94% 30.15 in 6.2 mi NNE 4.6 mph - N/A   Scattered Clouds
1:00 AM 53.6 °F - 50.0 °F 88% 30.15 in 6.2 mi North 1.2 mph - N/A   Unknown
1:30 AM 51.8 °F - 50.0 °F 94% 30.15 in 6.2 mi North 3.5 mph - N/A   Mostly Cloudy
2:00 AM 51.8 °F - 51.8 °F 100% 30.12 in 6.2 mi Calm Calm - N/A   Scattered Clouds
2:30 AM 51.8 °F - 50.0 °F 94% 30.12 in 6.2 mi Calm Calm - N/A   Scattered Clouds
3:00 AM 51.8 °F - 50.0 °F 94% 30.12 in 6.2 mi Calm Calm - N/A   Unknown
3:30 AM 51.8 °F - 50.0 °F 94% 30.12 in 6.2 mi Calm Calm - N/A   Unknown
4:00 AM 51.8 °F - 50.0 °F 94% 30.12 in 6.2 mi NW 4.6 mph - N/A   Unknown
4:30 AM 51.8 °F - 50.0 °F 94% 30.12 in 6.2 mi Calm Calm - N/A   Scattered Clouds
5:00 AM 51.8 °F - 50.0 °F 94% 30.12 in 6.2 mi SW 3.5 mph - N/A   Scattered Clouds
5:30 AM 51.8 °F - 50.0 °F 94% 30.15 in 6.2 mi South 4.6 mph - N/A   Unknown
6:00 AM 51.8 °F - 50.0 °F 94% 30.15 in - South 1.2 mph - N/A   Clear
6:30 AM 50.0 °F - 50.0 °F 100% 30.15 in 6.2 mi Calm Calm - N/A Fog Shallow Fog
7:00 AM 50.0 °F - 48.2 °F 94% 30.18 in 6.2 mi Calm Calm - N/A Fog Shallow Fog
7:30 AM 50.0 °F - 48.2 °F 94% 30.18 in - SSW 1.2 mph - N/A   Clear
8:00 AM 50.0 °F - 50.0 °F 100% 30.18 in - SSW 4.6 mph - N/A   Clear
8:30 AM 51.8 °F - 50.0 °F 94% 30.21 in 6.2 mi SSW 2.3 mph - N/A   Unknown
9:00 AM 53.6 °F - 48.2 °F 82% 30.21 in - Calm Calm - N/A   Clear
9:30 AM 57.2 °F - 48.2 °F 72% 30.21 in - SSW 1.2 mph - N/A   Clear
10:00 AM 60.8 °F - 48.2 °F 63% 30.18 in - SSW 2.3 mph - N/A   Clear
10:30 AM 60.8 °F - 42.8 °F 52% 30.18 in - SW 4.6 mph - N/A   Clear
11:00 AM 62.6 °F - 37.4 °F 39% 30.18 in - West 5.8 mph - N/A   Clear
11:30 AM 64.4 °F - 39.2 °F 40% 30.15 in - West 8.1 mph - N/A   Clear
12:00 PM 64.4 °F - 39.2 °F 40% 30.15 in - WSW 9.2 mph - N/A   Clear
12:30 PM 66.2 °F - 30.2 °F 26% 30.12 in - WSW 9.2 mph - N/A   Clear
1:00 PM 66.2 °F - 30.2 °F 26% 30.09 in - West 10.4 mph - N/A   Clear
1:30 PM 66.2 °F - 30.2 °F 26% 30.09 in - West 12.7 mph - N/A   Clear
2:00 PM 66.2 °F - 28.4 °F 24% 30.09 in 6.2 mi West 13.8 mph - N/A   Unknown
2:30 PM 68.0 °F - 28.4 °F 23% 30.09 in - WSW 15.0 mph - N/A   Clear
3:00 PM 66.2 °F - 26.6 °F 23% 30.09 in - West 13.8 mph - N/A   Clear
3:30 PM 66.2 °F - 26.6 °F 23% 30.09 in 6.2 mi WSW 13.8 mph - N/A   Unknown
4:00 PM 64.4 °F - 26.6 °F 24% 30.09 in - West 12.7 mph - N/A   Clear
4:30 PM 64.4 °F - 28.4 °F 26% 30.09 in - WSW 11.5 mph - N/A   Clear
5:00 PM - - - N/A% 0.00 in - WSW 10.4 mph - N/A   Clear
5:30 PM 59.0 °F - 33.8 °F 39% 30.12 in - WSW 8.1 mph - N/A   Clear
6:00 PM 55.4 °F - 35.6 °F 47% 30.12 in - West 5.8 mph - N/A   Clear
6:30 PM 53.6 °F - 35.6 °F 51% 30.15 in - West 5.8 mph - N/A   Clear
7:00 PM 53.6 °F - 35.6 °F 51% 30.15 in - West 9.2 mph - N/A   Clear
7:30 PM 53.6 °F - 33.8 °F 47% 30.15 in 6.2 mi West 9.2 mph - N/A   Unknown
8:00 PM 53.6 °F - 33.8 °F 47% 30.15 in 6.2 mi West 11.5 mph - N/A   Unknown
8:30 PM 53.6 °F - 33.8 °F 47% 30.15 in 6.2 mi West 9.2 mph - N/A   Unknown
9:00 PM 50.0 °F - 35.6 °F 58% 30.15 in 6.2 mi West 8.1 mph - N/A   Unknown
9:30 PM 48.2 °F - 33.8 °F 58% 30.18 in 6.2 mi SW 5.8 mph - N/A   Unknown
10:00 PM 46.4 °F 42.4 °F 35.6 °F 66% 30.18 in 6.2 mi WNW 8.1 mph - N/A   Unknown
10:30 PM 44.6 °F 42.2 °F 35.6 °F 71% 30.15 in 6.2 mi North 4.6 mph - N/A   Unknown
11:00 PM 42.8 °F 40.1 °F 37.4 °F 81% 30.18 in 6.2 mi North 4.6 mph - N/A   Unknown
11:30 PM 42.8 °F 38.6 °F 35.6 °F 76% 30.15 in 6.2 mi WNW 6.9 mph - N/A   Unknown